Shelbyville, IN

4:25 PM EST on December 09, 2019 (GMT -0500)
Shelbyville Municipal

Weather History for KGEZ - October, 2019

Change the Weather History Date:

Sunday, October 27, 2019

  Actual Average Record
Temperature  
Mean Temperature 53 °F 51 °F  
Max Temperature 64 °F 62 °F 84 °F (2014)
Min Temperature 42 °F 40 °F 28 °F (2001)
Degree Days  
Heating Degree Days 12 14  
Month to date heating degree days 214 291  
Since 1 July heating degree days 217 376  
Cooling Degree Days 0 0  
Month to date cooling degree days 36 11  
Year to date cooling degree days 1330 910  
Growing Degree Days 4 (Base 50)    
Moisture  
Dew Point 45 °F    
Average Humidity 67    
Maximum Humidity 89    
Minimum Humidity 44    
Precipitation  
Precipitation T in 0.09 in 1.51 in (2006)
Month to date precipitation 3.77 2.76  
Year to date precipitation 35.98 36.21  
Sea Level Pressure  
Sea Level Pressure 29.89 in    
Wind  
Wind Speed 10 mph (SW)    
Max Wind Speed 28 mph    
Max Gust Speed 39 mph    
Visibility 10 miles    
Events Rain    
T = Trace of Precipitation, MM = Missing Value Source: NWS Daily Summary

Daily Weather History Graph

Daily Weather History Graph

Search for Another Location

Airport or City:

Astronomy

Oct. 27, 2019 Rise Set
Actual Time 8:05 AM EDT 6:47 PM EDT
Civil Twilight 7:38 AM EDT 7:15 PM EDT
Nautical Twilight 7:06 AM EDT 7:46 PM EDT
Astronomical Twilight 6:35 AM EDT 8:18 PM EDT
Moon 7:13 AM EDT (10/27) 6:56 PM EDT (10/27)
Length of Visible Light 11h 37m
Length of Day
10h 42m
Waning Crescent, 0% of the Moon is Illuminated
Oct 27
Waning Crescent
Oct 27
New
Nov 4
First Quarter
Nov 12
Full
Nov 19
Last Quarter

Hourly Weather History & Observations

Time (EDT) Temp. Windchill Dew Point Humidity Pressure Visibility Wind Dir Wind Speed Gust Speed Precip Events Conditions
12:53 AM 55.0 °F - 48.9 °F 80% 29.58 in 10.0 mi SSW 21.9 mph 36.8 mph 0.00 in Rain Light Rain
1:53 AM 54.0 °F - 46.9 °F 77% 29.61 in 10.0 mi SW 20.7 mph 38.0 mph 0.00 in Rain Light Rain
2:53 AM 53.1 °F - 46.0 °F 77% 29.66 in 10.0 mi SW 21.9 mph 33.4 mph 0.00 in   Overcast
3:53 AM 52.0 °F - 46.0 °F 80% 29.69 in 10.0 mi WSW 20.7 mph 32.2 mph N/A   Overcast
4:20 AM 52.0 °F - 46.0 °F 80% 29.72 in 10.0 mi WSW 19.6 mph 34.5 mph N/A   Overcast
4:53 AM 52.0 °F - 46.0 °F 80% 29.74 in 10.0 mi WSW 16.1 mph 34.5 mph N/A   Overcast
5:53 AM 52.0 °F - 46.0 °F 80% 29.78 in 10.0 mi WSW 16.1 mph 26.5 mph N/A   Overcast
6:07 AM 52.0 °F - 46.0 °F 80% 29.79 in 10.0 mi WSW 12.7 mph 27.6 mph N/A   Overcast
6:23 AM 52.0 °F - 46.0 °F 80% 29.80 in 10.0 mi WSW 15.0 mph 26.5 mph N/A   Overcast
6:53 AM 52.0 °F - 46.0 °F 80% 29.82 in 10.0 mi WSW 13.8 mph 23.0 mph N/A   Overcast
7:53 AM 52.0 °F - 46.0 °F 80% 29.86 in 10.0 mi West 16.1 mph 24.2 mph N/A   Overcast
8:06 AM 52.0 °F - 46.0 °F 80% 29.87 in 10.0 mi West 13.8 mph 24.2 mph N/A   Overcast
8:53 AM 52.0 °F - 46.0 °F 80% 29.90 in 10.0 mi WSW 12.7 mph - N/A   Overcast
9:53 AM 52.0 °F - 45.0 °F 77% 29.94 in 10.0 mi West 12.7 mph - N/A   Overcast
10:53 AM 53.1 °F - 45.0 °F 74% 29.96 in 10.0 mi West 8.1 mph - N/A   Overcast
11:53 AM 55.9 °F - 45.0 °F 67% 29.98 in 10.0 mi West 9.2 mph - N/A   Mostly Cloudy
12:01 PM 57.0 °F - 45.0 °F 64% 29.98 in 10.0 mi WSW 11.5 mph 17.3 mph N/A   Partly Cloudy
12:53 PM 59.0 °F - 44.1 °F 58% 29.99 in 10.0 mi West 8.1 mph - N/A   Clear
1:53 PM 60.1 °F - 45.0 °F 57% 29.98 in 10.0 mi West 4.6 mph - N/A   Clear
2:53 PM 62.1 °F - 45.0 °F 53% 29.98 in 10.0 mi Variable 5.8 mph - N/A   Clear
3:53 PM 63.0 °F - 44.1 °F 50% 29.99 in 10.0 mi WSW 4.6 mph - N/A   Clear
4:53 PM 64.0 °F - 43.0 °F 46% 29.99 in 10.0 mi SW 10.4 mph - N/A   Clear
5:53 PM 63.0 °F - 42.1 °F 46% 30.00 in 10.0 mi SW 6.9 mph - N/A   Clear
6:53 PM 57.0 °F - 43.0 °F 59% 30.01 in 10.0 mi SW 4.6 mph - N/A   Clear
7:53 PM 50.0 °F - 43.0 °F 77% 30.03 in 10.0 mi South 4.6 mph - N/A   Clear
8:53 PM 46.9 °F - 42.1 °F 83% 30.03 in 10.0 mi SSE 3.5 mph - N/A   Clear
9:53 PM 45.0 °F - 41.0 °F 86% 30.05 in 10.0 mi Calm Calm - N/A   Clear
10:53 PM 45.0 °F 43.5 °F 41.0 °F 86% 30.07 in 10.0 mi SE 3.5 mph - N/A   Clear
11:53 PM 43.0 °F 41.3 °F 39.9 °F 89% 30.06 in 10.0 mi SSE 3.5 mph - N/A   Clear